Weather History for Eureka, NV

Change the Weather History Date:

Saturday, February 16, 2013

  Actual Average Record
Temperature  
Mean Temperature 33 °F 30 °F  
Max Temperature 50 °F 43 °F 61 °F (1996)
Min Temperature 15 °F 16 °F -15 °F (1966)
Degree Days  
Heating Degree Days 32 36  
Month to date heating degree days 606 600  
Since 1 July heating degree days 4586 4883  
Cooling Degree Days 0 0  
Month to date cooling degree days 0 0  
Year to date cooling degree days 0 0  
Moisture  
Dew Point 20 °F    
Average Humidity 58    
Maximum Humidity 84    
Minimum Humidity 31    
Precipitation  
Precipitation 0.00 in 0.03 in 0.32 in (1991)
Month to date precipitation 0.30 0.48  
Year to date precipitation 1.39 1.22  
Sea Level Pressure  
Sea Level Pressure 30.28 in    
Wind  
Wind Speed 6 mph (SSW)    
Max Wind Speed 13 mph    
Max Gust Speed 14 mph    
T = Trace of Precipitation, MM = Missing Value Source: NWS Daily Summary

Daily Weather History Graph

Daily Weather History Graph

Search for Another Location

Airport:

Trip Planner

Search our weather history database for the weather conditions in past years. The results will help you decide how hot, cold, wet, or windy it might be!

Date:

Astronomy

Feb. 16, 2013 Rise Set
Actual Time 6:34 AM PST 5:22 PM PST
Civil Twilight 6:07 AM PST 5:49 PM PST
Nautical Twilight 5:35 AM PST 6:21 PM PST
Astronomical Twilight 5:04 AM PST 6:52 PM PST
Moon 9:51 AM PST (2/16) No Moon Set
Length of Visible Light 11h 42m
Length of Day
10h 47m
Waxing Crescent, 40% of the Moon is Illuminated
Feb 16
Waxing Crescent
Feb 17
First Quarter
Feb 25
Full
Mar 4
Last Quarter
Mar 11
New

Hourly Weather History & Observations

Time (PST) Temp. Windchill Dew Point Humidity Pressure Visibility Wind Dir Wind Speed Gust Speed Precip Events Conditions
12:53 AM 19.0 °F 8.2 °F 12.9 °F 77% 30.44 in - South 9.2 mph - N/A   Unknown
1:53 AM 19.9 °F 12.1 °F 14.0 °F 78% 30.42 in - SSW 5.8 mph - N/A   Unknown
2:53 AM 21.0 °F 12.4 °F 17.1 °F 85% 30.40 in - SSW 6.9 mph - N/A   Unknown
3:53 AM 19.0 °F 9.0 °F 14.0 °F 81% 30.39 in - SW 8.1 mph - N/A   Unknown
4:53 AM 19.0 °F 6.8 °F 14.0 °F 81% 30.40 in - SSW 11.5 mph - N/A   Unknown
5:53 AM 16.0 °F 3.6 °F 10.9 °F 81% 30.45 in - SSW 10.4 mph - N/A   Unknown
6:53 AM 16.0 °F 3.6 °F 10.0 °F 77% 30.45 in - SSW 10.4 mph - N/A   Unknown
7:53 AM 25.0 °F 19.3 °F 17.1 °F 72% 30.43 in - SSW 4.6 mph - N/A   Unknown
8:53 AM 30.9 °F 26.2 °F 23.0 °F 72% 30.39 in - SW 4.6 mph - N/A   Unknown
9:53 AM 37.0 °F 34.5 °F 24.1 °F 59% 30.35 in - SW 3.5 mph - N/A   Unknown
10:53 AM 42.1 °F 40.2 °F 26.1 °F 53% 30.31 in - NE 3.5 mph - N/A   Unknown
11:53 AM 45.0 °F - 25.0 °F 46% 30.27 in - Calm Calm - N/A   Unknown
12:53 PM 44.1 °F - 26.1 °F 49% 30.23 in - Calm Calm - N/A   Unknown
1:53 PM 48.9 °F - 19.0 °F 31% 30.18 in - Calm Calm - N/A   Unknown
3:00 PM - - - N/A% - - North - - N/A   Unknown
4:53 PM 41.0 °F 38.0 °F 26.1 °F 55% 30.14 in - SSE 4.6 mph - N/A   Unknown
5:53 PM 36.0 °F 30.3 °F 27.0 °F 70% 30.16 in - South 6.9 mph - N/A   Unknown
6:53 PM 35.1 °F 30.1 °F 26.1 °F 70% 30.15 in - SSW 5.8 mph - N/A   Unknown
8:53 PM 32.0 °F 27.5 °F 25.0 °F 75% 30.08 in - South 4.6 mph - N/A   Unknown
9:53 PM 32.0 °F 25.6 °F 24.1 °F 73% 30.04 in - South 6.9 mph - N/A   Unknown
10:53 PM 36.0 °F 28.5 °F 25.0 °F 64% 29.98 in - SSW 10.4 mph - N/A   Unknown